This is the latest recevied weather packets stored in our database for station/object BG5HLN-13. If no packets are shown the sender has not sent any weather packets the latest 10 day(s).
| Time | Temp. | Humidity | Pressure | Rain* | Wind** | Luminosity | Snow |
|---|---|---|---|---|---|---|---|
| 1787933779 | 30.56° C | 91% | 1003.3 hPa | 0 mm | - | - | - |
| 1787933179 | 30.56° C | 91% | 1003.3 hPa | 0.25 mm | - | - | - |
| 1787932579 | 30.56° C | 91% | 1003.3 hPa | 0.25 mm | - | - | - |
| 1787931985 | 30.56° C | 91% | 1003.5 hPa | 0.25 mm | - | - | - |
| 1787931378 | 30.56° C | 91% | 1003.5 hPa | 0.25 mm | - | - | - |
| 1787930778 | 30.56° C | 91% | 1003.6 hPa | 0.76 mm | - | - | - |
| 1787930178 | 30.56° C | 90% | 1003.6 hPa | 0.76 mm | - | - | - |
| 1787929578 | 30.56° C | 90% | 1003.5 hPa | 4.83 mm | - | - | - |
| 1787928978 | 30.56° C | 89% | 1003.5 hPa | 16 mm | - | - | - |
| 1787928378 | 31.11° C | 90% | 1003.5 hPa | 16 mm | - | - | - |
| 1787927778 | 30.56° C | 90% | 1003.5 hPa | 16 mm | - | - | - |
| 1787927179 | 31.11° C | 90% | 1003.4 hPa | 15.49 mm | - | - | - |
| 1787926579 | 31.11° C | 90% | 1003.4 hPa | 15.49 mm | - | - | - |
| 1787925978 | 31.11° C | 89% | 1003.4 hPa | 11.18 mm | - | - | - |
| 1787925379 | 31.11° C | 89% | 1003.5 hPa | 0 mm | - | - | - |
| 1787924779 | 31.11° C | 90% | 1003.5 hPa | 0 mm | - | - | - |
| 1787924178 | 31.11° C | 90% | 1003.4 hPa | 0.25 mm | - | - | - |
| 1787923578 | 31.11° C | 90% | 1003.3 hPa | 0.25 mm | - | - | - |
| 1787922978 | 31.11° C | 90% | 1003.3 hPa | 0.25 mm | - | - | - |
| 1787922378 | 31.11° C | 90% | 1003.3 hPa | 0.25 mm | - | - | - |
| 1787921777 | 31.11° C | 90% | 1003.2 hPa | 0.25 mm | - | - | - |
| 1787921178 | 31.11° C | 90% | 1003 hPa | 0.25 mm | - | - | - |
| 1787920579 | 31.11° C | 89% | 1003 hPa | 0 mm | - | - | - |
| 1787919977 | 31.67° C | 89% | 1003 hPa | 0 mm | - | - | - |
| 1787919378 | 31.11° C | 89% | 1002.9 hPa | 0 mm | - | - | - |
* Rain latest hour (hover to see other rain measurements)
** Current wind speed in m/s (hover to see current wind gust speed)